ETH776 ENGM-ESSA

Flight info

Callsign ETH776
Flight time 0h 39m
Altitude 29000
Route MASEV Z183 LEGPO DCT ELTOK
Aircraft B77W/H-SDE1E2E3FGHIJ2J3J4J5M1RWXY/LB1D1

Departure

Time 2026-05-04 15:41
Airport Oslo-Gardermoen International Airport (ENGM)

Arrival

Time 2026-05-04 16:20
Airport Stockholm-Arlanda Airport (ESSA)
Time Latitude Longitude Altitude Speed Heading
2026-05-04 15:07 60.19258 11.10841 688 ft 0 kts 339°
2026-05-04 15:32 60.19237 11.10860 679 ft 4 kts 351°
2026-05-04 15:33 60.19212 11.10802 679 ft 4 kts 97°
2026-05-04 15:34 60.19214 11.10780 679 ft 0 kts 106°
2026-05-04 15:36 60.19213 11.10787 679 ft 1 kts 106°
2026-05-04 15:36 60.19211 11.10807 679 ft 2 kts 105°
2026-05-04 15:36 60.19202 11.10872 680 ft 8 kts 105°
2026-05-04 15:37 60.19181 11.11028 683 ft 15 kts 105°
2026-05-04 15:37 60.19223 11.11161 682 ft 13 kts 23°
2026-05-04 15:37 60.19319 11.11223 682 ft 15 kts 16°
2026-05-04 15:37 60.19421 11.11281 683 ft 15 kts 16°
2026-05-04 15:38 60.19523 11.11339 685 ft 15 kts 15°
2026-05-04 15:38 60.19624 11.11400 685 ft 15 kts 17°
2026-05-04 15:38 60.19726 11.11461 686 ft 15 kts 16°
2026-05-04 15:38 60.19828 11.11516 691 ft 15 kts 15°
2026-05-04 15:39 60.19930 11.11576 683 ft 15 kts 17°
2026-05-04 15:39 60.20031 11.11637 687 ft 15 kts 17°
2026-05-04 15:39 60.20167 11.11817 691 ft 13 kts 96°
2026-05-04 15:40 60.20146 11.12008 690 ft 0 kts 105°
2026-05-04 15:40 60.20143 11.12026 690 ft 5 kts 106°
2026-05-04 15:40 60.20113 11.12179 689 ft 19 kts 127°
2026-05-04 15:40 60.19976 11.12164 686 ft 30 kts 195°
2026-05-04 15:41 60.19616 11.11907 688 ft 104 kts 206°
2026-05-04 15:41 60.18633 11.11297 1298 ft 177 kts 193°
2026-05-04 15:41 60.17388 11.10760 2589 ft 186 kts 201°
2026-05-04 15:41 60.16094 11.10089 3274 ft 198 kts 200°
2026-05-04 15:42 60.14716 11.09585 4038 ft 209 kts 190°
2026-05-04 15:42 60.13158 11.09825 4525 ft 241 kts 171°
2026-05-04 15:42 60.11593 11.11581 4989 ft 275 kts 138°
2026-05-04 15:42 60.10296 11.14512 5743 ft 286 kts 137°
2026-05-04 15:43 60.08946 11.17495 6705 ft 289 kts 136°
2026-05-04 15:43 60.07859 11.20929 7537 ft 303 kts 110°
2026-05-04 15:43 60.07669 11.25162 8472 ft 310 kts 79°
2026-05-04 15:43 60.08490 11.29039 9462 ft 307 kts 48°
2026-05-04 15:44 60.09974 11.32095 10201 ft 311 kts 38°
2026-05-04 15:44 60.11631 11.35186 10520 ft 341 kts 38°
2026-05-04 15:44 60.13432 11.38587 10903 ft 366 kts 39°
2026-05-04 15:44 60.15297 11.42183 11840 ft 376 kts 39°
2026-05-04 15:45 60.17182 11.45894 13004 ft 383 kts 41°
2026-05-04 15:45 60.18949 11.49986 14056 ft 394 kts 46°
2026-05-04 15:45 60.20677 11.54404 14853 ft 408 kts 47°
2026-05-04 15:45 60.22461 11.58969 15685 ft 421 kts 46°
2026-05-04 15:46 60.24299 11.63551 16604 ft 431 kts 45°
2026-05-04 15:46 60.26147 11.68358 17464 ft 441 kts 52°
2026-05-04 15:46 60.27332 11.74234 18142 ft 466 kts 76°
2026-05-04 15:46 60.27456 11.80797 18982 ft 471 kts 98°
2026-05-04 15:47 60.26918 11.87339 19752 ft 477 kts 102°
2026-05-04 15:47 60.26369 11.94027 20496 ft 487 kts 101°
2026-05-04 15:47 60.25717 12.00783 21296 ft 493 kts 107°
2026-05-04 15:47 60.24785 12.07472 22125 ft 499 kts 110°
2026-05-04 15:48 60.23726 12.14166 22941 ft 505 kts 112°
2026-05-04 15:48 60.22656 12.20855 23760 ft 509 kts 111°
2026-05-04 15:48 60.20610 12.34346 25807 ft 502 kts 110°
2026-05-04 15:49 60.19626 12.41087 26762 ft 501 kts 110°
2026-05-04 15:49 60.18643 12.47803 27711 ft 501 kts 110°
2026-05-04 15:49 60.17676 12.54514 28497 ft 501 kts 107°
2026-05-04 15:49 60.16985 12.61417 28703 ft 507 kts 100°
2026-05-04 15:50 60.16175 12.75486 28690 ft 505 kts 96°
2026-05-04 15:50 60.15466 12.89469 28696 ft 502 kts 97°
2026-05-04 15:51 60.14627 13.03386 28695 ft 501 kts 98°
2026-05-04 15:51 60.13711 13.17156 28672 ft 501 kts 99°
2026-05-04 15:52 60.12764 13.31018 28685 ft 501 kts 99°
2026-05-04 15:52 60.11811 13.44872 28652 ft 501 kts 99°
2026-05-04 15:53 60.10849 13.58702 28693 ft 500 kts 99°
2026-05-04 15:53 60.09875 13.72489 28686 ft 498 kts 99°
2026-05-04 15:54 60.08896 13.86139 28686 ft 497 kts 99°
2026-05-04 15:54 60.07899 13.99833 28676 ft 497 kts 99°
2026-05-04 15:55 60.07053 14.11294 28613 ft 495 kts 100°
2026-05-04 15:55 60.06037 14.24890 28646 ft 493 kts 100°
2026-05-04 15:56 60.05012 14.38436 28648 ft 492 kts 100°
2026-05-04 15:56 60.03982 14.51829 28522 ft 485 kts 101°
2026-05-04 15:57 60.03467 14.58445 28196 ft 479 kts 101°
2026-05-04 15:57 60.02955 14.64981 27870 ft 472 kts 101°
2026-05-04 15:57 60.02446 14.71443 27498 ft 467 kts 101°
2026-05-04 15:57 60.01939 14.77833 27068 ft 463 kts 101°
2026-05-04 15:58 60.01429 14.84158 26682 ft 459 kts 102°
2026-05-04 15:58 60.00895 14.90415 26203 ft 457 kts 102°
2026-05-04 15:58 60.00343 14.96685 25596 ft 459 kts 103°
2026-05-04 15:58 59.99779 15.02991 24989 ft 462 kts 103°
2026-05-04 15:59 59.99214 15.09295 24373 ft 455 kts 103°
2026-05-04 15:59 59.98667 15.15435 23757 ft 444 kts 103°
2026-05-04 15:59 59.98132 15.21436 23149 ft 434 kts 103°
2026-05-04 15:59 59.97605 15.27317 22453 ft 430 kts 104°
2026-05-04 16:00 59.97071 15.33214 21797 ft 433 kts 104°
2026-05-04 16:00 59.96529 15.39149 21102 ft 436 kts 104°
2026-05-04 16:00 59.95991 15.45032 20615 ft 435 kts 104°
2026-05-04 16:00 59.95460 15.50853 20254 ft 416 kts 104°
2026-05-04 16:01 59.94950 15.56446 19879 ft 406 kts 104°
2026-05-04 16:01 59.94441 15.61957 19518 ft 403 kts 104°
2026-05-04 16:01 59.93929 15.67458 19157 ft 401 kts 104°
2026-05-04 16:01 59.93419 15.72904 18792 ft 399 kts 104°
2026-05-04 16:02 59.92910 15.78317 18423 ft 397 kts 104°
2026-05-04 16:02 59.92401 15.83712 18052 ft 395 kts 104°
2026-05-04 16:02 59.91383 15.94415 17240 ft 391 kts 104°
2026-05-04 16:03 59.90882 15.99655 16863 ft 388 kts 104°
2026-05-04 16:03 59.90377 16.04919 16470 ft 384 kts 104°
2026-05-04 16:03 59.89876 16.10121 16139 ft 380 kts 104°
2026-05-04 16:03 59.89377 16.15270 15762 ft 377 kts 104°
2026-05-04 16:04 59.88881 16.20374 15397 ft 374 kts 104°
2026-05-04 16:04 59.87894 16.30454 14683 ft 368 kts 104°
2026-05-04 16:04 59.87403 16.35444 14321 ft 365 kts 104°
2026-05-04 16:05 59.86914 16.40387 13959 ft 363 kts 104°
2026-05-04 16:05 59.86426 16.45291 13608 ft 361 kts 104°
2026-05-04 16:05 59.85454 16.55025 12849 ft 356 kts 104°
2026-05-04 16:06 59.84958 16.59818 12464 ft 349 kts 107°
2026-05-04 16:06 59.85050 16.72154 11424 ft 331 kts 90°
2026-05-04 16:07 59.84903 16.78273 10977 ft 332 kts 96°
2026-05-04 16:07 59.84282 16.91720 10652 ft 322 kts 97°
2026-05-04 16:08 59.84066 16.96191 10657 ft 327 kts 97°
2026-05-04 16:08 59.83408 17.09783 10652 ft 327 kts 97°
2026-05-04 16:09 59.82970 17.18773 10652 ft 327 kts 97°
2026-05-04 16:09 59.82519 17.27804 9665 ft 331 kts 97°
2026-05-04 16:10 59.81410 17.36454 8023 ft 319 kts 122°
2026-05-04 16:11 59.77914 17.47227 6067 ft 300 kts 127°
2026-05-04 16:11 59.76767 17.50643 5384 ft 294 kts 127°
2026-05-04 16:12 59.73466 17.60519 4993 ft 292 kts 127°
2026-05-04 16:12 59.71883 17.71584 4981 ft 294 kts 69°
2026-05-04 16:13 59.74515 17.77633 4198 ft 295 kts 30°
2026-05-04 16:13 59.77861 17.81851 3885 ft 284 kts 28°
2026-05-04 16:14 59.81239 17.86029 2999 ft 277 kts 28°
2026-05-04 16:14 59.84337 17.89802 2424 ft 241 kts 28°
2026-05-04 16:15 59.85631 17.98334 2469 ft 241 kts 125°
2026-05-04 16:16 59.83074 18.01682 2461 ft 214 kts 172°
2026-05-04 16:16 59.78737 18.00947 2443 ft 210 kts 196°
2026-05-04 16:17 59.76014 17.99949 2455 ft 184 kts 196°
2026-05-04 16:18 59.72230 17.98558 1707 ft 185 kts 197°
2026-05-04 16:18 59.70958 17.98096 1446 ft 185 kts 196°
2026-05-04 16:19 59.67386 17.96798 704 ft 155 kts 195°
2026-05-04 16:19 59.65458 17.96128 274 ft 121 kts 198°
2026-05-04 16:20 59.63547 17.95404 149 ft 32 kts 194°
2026-05-04 16:20 59.63297 17.95134 144 ft 13 kts 217°
2026-05-04 16:21 59.63271 17.94941 143 ft 12 kts 331°
2026-05-04 16:22 59.63437 17.94954 143 ft 12 kts
2026-05-04 16:22 59.63738 17.95062 143 ft 16 kts 11°
2026-05-04 16:23 59.64062 17.95185 143 ft 17 kts 11°
2026-05-04 16:24 59.64646 17.95395 143 ft 23 kts 11°
2026-05-04 16:25 59.64958 17.95507 143 ft 23 kts
2026-05-04 16:26 59.65494 17.95278 143 ft 16 kts 345°
2026-05-04 16:26 59.65741 17.94971 143 ft 16 kts 264°
2026-05-04 16:27 59.65689 17.94550 143 ft 16 kts 256°
2026-05-04 16:28 59.65606 17.93916 142 ft 16 kts 257°
2026-05-04 16:28 59.65501 17.93336 142 ft 11 kts 215°
2026-05-04 16:29 59.65454 17.93447 142 ft 8 kts 70°
2026-05-04 16:30 59.65460 17.93485 142 ft 0 kts 71°